Location: Unspecified
(0.0000°N, 0.0000°E)
Time: 14:04:06
(UTC+01:00)

Cosmos 1908 Rocket - Visible Passes

Search period start: 11 February 2016 00:00
Search period end: 21 February 2016 00:00
Orbit: 606 x 634 km, 82.5° (Epoch: 10 February)

Date Brightness Start Highest point End Pass type
(mag) Time Alt. Az. Time Alt. Az. Time Alt. Az.
11 Feb 5.0 06:14:08 10° NNE 06:18:12 41° E 06:22:19 10° SSE visible
12 Feb 3.5 06:31:23 10° N 06:35:42 82° W 06:40:05 10° S visible
14 Feb 6.2 05:29:58 10° NE 05:33:09 20° E 05:36:20 10° SE visible
15 Feb 4.6 05:46:29 10° NNE 05:50:38 45° E 05:54:50 10° SSE visible
16 Feb 3.4 06:03:49 10° N 06:08:09 74° W 06:12:31 10° S visible
17 Feb 4.3 06:21:49 10° NNW 06:25:39 30° W 06:29:32 10° SSW visible
18 Feb 5.9 05:03:10 14° NE 05:05:34 22° E 05:08:58 10° SE visible
18 Feb 5.3 06:40:59 10° WNW 06:43:10 14° W 06:45:22 10° SW visible
19 Feb 4.3 05:22:12 43° NE 05:23:04 51° E 05:27:20 10° SSE visible
20 Feb 3.6 05:41:04 60° SW 05:41:04 60° SW 05:44:57 10° S visible
